This is the latest recevied weather packets stored in our database for station/object KE0PRS. If no packets are shown the sender has not sent any weather packets the latest 10 day(s).
| Time | Temp. | Humidity | Pressure | Rain* | Wind** | Luminosity | Snow |
|---|---|---|---|---|---|---|---|
| 1777058728 | 23.33° C | 31% | 1010.6 hPa | 0 mm | - | 796 W/m² | - |
| 1777058424 | 23.33° C | 30% | 1010.7 hPa | 0 mm | - | 802 W/m² | - |
| 1777058122 | 22.78° C | 31% | 1010.7 hPa | 0 mm | - | 805 W/m² | - |
| 1777057821 | 22.78° C | 32% | 1010.7 hPa | 0 mm | - | 804 W/m² | - |
| 1777057516 | 22.78° C | 32% | 1011 hPa | 0 mm | - | 810 W/m² | - |
| 1777057213 | 22.78° C | 32% | 1010.8 hPa | 0 mm | - | 812 W/m² | - |
| 1777056909 | 22.78° C | 32% | 1011 hPa | 0 mm | - | 814 W/m² | - |
| 1777056607 | 22.78° C | 33% | 1011.1 hPa | 0 mm | - | 812 W/m² | - |
| 1777056303 | 21.67° C | 33% | 1011 hPa | 0 mm | - | 813 W/m² | - |
| 1777056000 | 22.22° C | 34% | 1011.1 hPa | 0 mm | - | 812 W/m² | - |
| 1777055696 | 21.67° C | 34% | 1011.4 hPa | 0 mm | - | 812 W/m² | - |
| 1777055396 | 21.11° C | 34% | 1011.3 hPa | 0 mm | - | 812 W/m² | - |
| 1777055090 | 21.11° C | 36% | 1011.4 hPa | 0 mm | - | 811 W/m² | - |
| 1777054786 | 20.56° C | 35% | 1011.5 hPa | 0 mm | - | 810 W/m² | - |
| 1777054483 | 20° C | 36% | 1011.5 hPa | 0 mm | - | 809 W/m² | - |
| 1777054181 | 20° C | 36% | 1011.7 hPa | 0 mm | - | 803 W/m² | - |
| 1777053878 | 20° C | 37% | 1011.6 hPa | 0 mm | - | 799 W/m² | - |
| 1777053573 | 20° C | 36% | 1011.7 hPa | 0 mm | - | 796 W/m² | - |
| 1777053268 | 20° C | 37% | 1011.9 hPa | 0 mm | - | 793 W/m² | - |
| 1777052964 | 20° C | 38% | 1011.8 hPa | 0 mm | - | 786 W/m² | - |
| 1777052661 | 19.44° C | 38% | 1011.8 hPa | 0 mm | - | 780 W/m² | - |
| 1777052360 | 20° C | 38% | 1011.9 hPa | 0 mm | - | 778 W/m² | - |
| 1777052057 | 19.44° C | 40% | 1012 hPa | 0 mm | - | 773 W/m² | - |
| 1777051754 | 19.44° C | 38% | 1012.3 hPa | 0 mm | - | 767 W/m² | - |
| 1777051450 | 19.44° C | 39% | 1012.3 hPa | 0 mm | - | 760 W/m² | - |
* Rain latest hour (hover to see other rain measurements)
** Current wind speed in m/s (hover to see current wind gust speed)